www.pogodaiklimat.ru

Погода и климат >> Архив погоды >> Испания >> Pontevedra


ПОГОДА в Pontevedra

  • Прогноз погоды в Pontevedra
  • Монитор погоды в Pontevedra
  • Климат города

АРХИВ ПОГОДЫ в Pontevedra

Время (UTC), дата Ветер
(напр.,м/с)
 
Видим.   Явления Облачность Т
(С)
Тd
(С)
f
(%)
Тe
(С)
Тes
(С)
Комфортность P
(гПа)
Po
(гПа)
Тmin
(С)
Tmax
(С)
R
(мм)
R24
(мм)
S
(см)
05 19.06 В 1 17 км н/о +16.7 +15.1 90 +18 +18 1011.9 999.2
04 19.06 СВ 1 17 км н/о +17.1 +15.8 92 +19 +19 1011.7 999.0
06 19.06 СВ 1 8000 м дымка 6/0
[Ci sp]
+16.5 +15.2 92 +18 +19 1012.5 999.8 +16.3
07 19.06 В 1 20 км н/о +17.3 +14.9 86 +18 +18 1012.8 1000.1
08 19.06 штиль 0 20 км н/о +18.9 +15.8 82 +20 +20 1013.0 1000.4
09 19.06 СЗ 1 10 км 3/0
[Ci sp]
+22.0 +16.9 73 +26 +37 душно 1012.9 1000.4
11 19.06 З 2 20 км н/о +28.3 +16.6 49 +32 +32 душно 1012.9 1000.7
10 19.06 СЗ 1 20 км н/о +26.3 +17.4 58 +30 +30 душно 1012.9 1000.6
12 19.06 Ю 2 10 км 9/6 1000 м
[Cu med, cong Ac As]
+29.1 +18.5 53 +34 +38 очень
душно
1014.7 1002.5
13 19.06 ЮВ 1 20 км н/о +26.7 +17.5 57 +31 +31 душно 1015.1 1002.8
14 19.06 С 2 20 км н/о +28.0 +19.0 58 +33 +33 очень
душно
1013.8 1001.6
15 19.06 СЗ 3 5000 м мгла 10/0
[Ac As]
+29.7 +19.7 55 +36 +40 очень
душно
1012.2 1000.1
17 19.06 ЮЗ 1 19 км н/о +29.1 +21.1 62 +37 +37 очень
душно
1012.5 1000.3
16 19.06 СЗ 2 18 км н/о +30.2 +18.9 51 +36 +36 очень
душно
1012.2 1000.1
18 19.06 Ю 1 4000 м мгла 8/0
[Ac trans Ci sp]
+28.4 +20.9 64 +36 +39 очень
душно
1012.4 1000.2 +30.2
19 19.06 ЮЗ 1 18 км н/о +27.0 +20.1 66 +33 +33 очень
душно
1012.5 1000.3
20 19.06 Ю 1 16 км н/о +26.3 +20.8 72 +33 +33 очень
душно
1012.9 1000.6
21 19.06 Ю 1 17 км н/о +23.5 +18.4 73 +28 +28 душно 1013.9 1001.5
23 19.06 ЮВ 1 12 км н/о +22.2 +18.8 81 +28 +28 душно 1014.1 1001.6
22 19.06 В 1 13 км н/о +23.3 +19.5 79 +30 +30 очень
душно
1013.9 1001.5
00 20.06 В 3 10 км н/о +23.6 +16.9 66 +27 +27 жарко 1013.8 1001.4
01 20.06 В 4 10 км н/о +23.5 +15.5 61 +27 +27 душно 1013.3 1000.9
02 20.06 В 3 10 км н/о +23.1 +14.4 58 +27 +27 душно 1013.0 1000.6
03 20.06 В 2 10 км н/о +21.3 +13.5 61 +24 +24 комфорт 1013.5 1001.0
05 20.06 В 2 10 км н/о +20.7 +13.6 64 +24 +24 комфорт 1014.3 1001.7
04 20.06 С 1 10 км н/о +21.3 +13.2 60 +24 +24 комфорт 1013.6 1001.1
06 20.06 В 1 4000 м мгла ясно +21.1 +14.5 66 +24 +25 комфорт 1014.3 1001.8 +20.5
07 20.06 В 1 10 км н/о +22.8 +15.4 63 +27 +27 душно 1014.8 1002.3
08 20.06 СЗ 1 10 км н/о +25.1 +18.5 67 +30 +30 душно 1015.1 1002.7
09 20.06 СЗ 1 5000 м мгла ясно +27.7 +18.7 58 +33 +45 очень
душно
1015.2 1002.9
11 20.06 Ю 1 19 км н/о +32.3 +17.4 41 +36 +36 очень
душно
1015.0 1002.9
10 20.06 Ю 1 8000 м н/о +31.0 +18.0 46 +35 +35 очень
душно
1015.0 1002.9
12 20.06 З 2 8000 м мгла ясно +32.5 +15.9 37 +35 +56 опасность
солнечного
удара
1015.1 1003.0
13 20.06 З 2 20 км н/о +33.0 +15.0 34 +35 +35 душно 1014.6 1002.5
14 20.06 З 1 20 км н/о +32.6 +14.2 33 +34 +34 очень
жарко
1014.0 1001.9
15 20.06 З 2 8000 м мгла ясно +32.0 +15.1 36 +34 +50 душно 1013.5 1001.4
17 20.06 З 2 20 км н/о +30.0 +16.1 43 +33 +33 душно 1012.9 1000.7
16 20.06 З 2 20 км н/о +31.2 +16.0 40 +34 +34 душно 1013.0 1000.9
18 20.06 З 1 5000 м мгла ясно +28.8 +16.0 46 +32 +36 душно 1013.1 1000.9 +33.3
19 20.06 Ю 1 20 км н/о +26.9 +16.2 52 +30 +30 душно 1013.2 1000.9
20 20.06 Ю 1 20 км н/о +25.3 +16.4 58 +29 +29 душно 1013.3 1001.0
21 20.06 В 1 20 км н/о +24.1 +15.3 58 +27 +27 жарко 1013.6 1001.2
23 20.06 СВ 1 20 км н/о +23.0 +16.5 67 +28 +28 душно 1013.4 1001.0
22 20.06 СВ 2 20 км н/о +24.0 +16.3 62 +27 +27 жарко 1013.4 1001.0
00 21.06 ЮВ 1 20 км н/о +22.2 +16.2 69 +26 +26 душно 1013.6 1001.1
01 21.06 ЮВ 1 16 км н/о +20.9 +17.1 79 +26 +26 душно 1013.5 1001.0
02 21.06 ЮЗ 1 15 км н/о +20.6 +17.0 80 +26 +26 душно 1013.4 1000.9
03 21.06 ЮВ 1 10 км н/о +19.7 +17.1 85 +24 +24 комфорт 1014.2 1001.6
05 21.06 ЮЗ 1 6000 м н/о +18.6 +16.9 90 +21 +21 комфорт 1014.0 1001.4
04 21.06 В 1 8000 м н/о +19.3 +17.1 87 +23 +23 комфорт 1013.9 1001.3
06 21.06 СВ 1 5000 м дымка 4/0
[Ci fib]
+18.6 +16.4 87 +21 +21 комфорт 1013.5 1000.9 +18.5
07 21.06 Ю 1 13 км н/о +19.9 +17.9 88 +24 +24 комфорт 1013.9 1001.3
08 21.06 ЮЗ 1 н/о н/о +20.7 +18.3 86 +26 +26 душно 1014.5 1002.0
09 21.06 З 1 2000 м туман на расстоянии 10/10 50 м
[St]
+20.2 +18.0 87 +25 +25 комфорт 1015.2 1002.6
11 21.06 Ю 1 12 км н/о +22.7 +19.1 80 +29 +29 очень
душно
1015.5 1003.0
10 21.06 ЮЗ 1 8000 м н/о +20.3 +18.2 88 +25 +25 комфорт 1015.6 1003.0
12 21.06 З 2 6000 м мгла 1/1 100 м
[St]
+23.9 +18.5 72 +28 +47 душно 1015.4 1003.0
13 21.06 З 3 13 км н/о +23.4 +18.7 75 +30 +30 очень
душно
1015.2 1002.8
14 21.06 ЮЗ 1 17 км н/о +25.1 +19.0 69 +30 +30 душно 1014.8 1002.4
15 21.06 Ю 1 6000 м мгла 4/0
[Ci fib]
+24.2 +18.8 72 +29 +45 душно 1014.6 1002.2
17 21.06 ЮЗ 1 18 км н/о +22.8 +18.1 75 +28 +28 душно 1014.9 1002.4
16 21.06 З 2 13 км н/о +22.8 +18.3 76 +28 +28 душно 1015.0 1002.5
18 21.06 ЮЗ 1 3000 м мгла 3/1 100 м
[Sc Ci fib]
+22.7 +18.0 75 +28 +31 душно 1015.3 1002.8 +25.1
19 21.06 ЮЗ 1 16 км н/о +21.9 +17.9 78 +27 +27 душно 1016.1 1003.6
20 21.06 ЮЗ 1 12 км н/о +20.7 +17.7 83 +26 +26 душно 1016.7 1004.1
21 21.06 Ю 1 14 км н/о +20.1 +17.3 84 +25 +25 комфорт 1017.0 1004.4
23 21.06 штиль 0 14 км н/о +19.9 +17.5 86 +22 +22 комфорт 1017.3 1004.7
22 21.06 ЮВ 1 13 км н/о +20.0 +17.4 85 +24 +24 комфорт 1017.2 1004.6
00 22.06 штиль 0 13 км н/о +19.9 +17.5 86 +22 +22 комфорт 1017.2 1004.6
01 22.06 З 1 12 км н/о +19.9 +17.9 88 +24 +24 комфорт 1017.1 1004.5
02 22.06 З 1 10 км слаб. морось н/о +19.8 +17.9 89 +24 +24 комфорт 1016.8 1004.2
03 22.06 З 1 н/о в посл. час морось н/о +19.5 +17.6 89 +23 +23 комфорт 1016.5 1003.9
05 22.06 Ю 1 9000 м н/о +19.2 +17.5 90 +23 +23 комфорт 1017.0 1004.4
04 22.06 З 1 9000 м н/о +19.3 +17.6 90 +23 +23 комфорт 1016.6 1004.0
06 22.06 Ю 1 4000 м дымка 10/10 50 м
[St]
+19.2 +17.3 89 +23 +23 комфорт 1017.5 1004.8 +19.1
07 22.06 З 1 9000 м н/о +19.3 +17.4 89 +22 +22 комфорт 1018.1 1005.4
08 22.06 Ю 1 8000 м н/о +19.5 +17.6 89 +23 +23 комфорт 1018.8 1006.1
09 22.06 Ю 1 6000 м дымка 10/10 50 м
[St]
+19.7 +17.3 86 +24 +24 комфорт 1019.3 1006.6
11 22.06 З 1 19 км н/о +21.1 +15.6 71 +24 +24 комфорт 1019.6 1007.0
10 22.06 СВ 1 12 км н/о +19.9 +17.1 84 +24 +24 комфорт 1019.3 1006.7
12 22.06 З 2 15 км 10/10 300 м
[Sc]
+21.5 +15.1 67 +25 +25 комфорт 1020.0 1007.4
13 22.06 Ю 1 19 км н/о +22.2 +14.8 63 +26 +26 душно 1020.0 1007.4
14 22.06 З 2 19 км н/о +23.2 +14.5 58 +27 +27 душно 1019.8 1007.3
15 22.06 З 2 15 км 4/3 300 м
[Sc Ac trans]
+22.6 +13.9 58 +26 +36 жарко 1019.5 1006.9
17 22.06 З 2 20 км н/о +22.0 +15.1 65 +26 +26 душно 1019.6 1007.0
16 22.06 Ю 1 20 км н/о +22.1 +15.2 65 +26 +26 душно 1019.4 1006.8
18 22.06 Ю 2 15 км 3/0
[Ci sp]
+20.5 +14.2 67 +24 +27 комфорт 1019.8 1007.2 +23.4
19 22.06 Ю 1 20 км н/о +20.2 +14.3 69 +24 +24 комфорт 1020.4 1007.7
20 22.06 ЮВ 1 18 км н/о +19.0 +14.9 77 +22 +22 комфорт 1020.8 1008.1
21 22.06 СЗ 1 20 км н/о +17.5 +14.0 80 +19 +19 1021.5 1008.7
23 22.06 В 1 20 км н/о +17.2 +13.9 81 +18 +18 1022.5 1009.7
22 22.06 ЮВ 1 20 км н/о +16.7 +14.0 84 +18 +18 1022.5 1009.7
00 23.06 В 1 18 км н/о +16.8 +13.9 83 +18 +18 1022.5 1009.7
01 23.06 СВ 1 20 км н/о +16.4 +14.2 87 +18 +18 1022.7 1009.8
02 23.06 В 2 20 км н/о +16.1 +13.8 86 +16 +16 1022.4 1009.5
03 23.06 ЮВ 1 16 км н/о +15.1 +13.3 89 +16 +16 1022.3 1009.4
05 23.06 СВ 2 13 км н/о +14.9 +13.3 90 +15 +15 1022.4 1009.5
04 23.06 В 2 16 км н/о +14.6 +13.3 92 +14 +14 1022.0 1009.1
06 23.06 С 1 12 км 8/4 300 м
[Sc Ac und]
+14.4 +12.8 90 +15 +15 1023.1 1010.1 +14.4
07 23.06 В 2 12 км н/о +15.4 +13.4 88 +15 +15 1023.1 1010.2
08 23.06 СЗ 2 11 км н/о +16.9 +14.2 84 +17 +17 1023.3 1010.5
09 23.06 З 1 15 км 3/3 300 м
[Sc]
+19.9 +14.9 73 +23 +31 комфорт 1023.1 1010.4
11 23.06 З 2 20 км н/о +24.4 +16.4 61 +28 +28 душно 1022.8 1010.3
10 23.06 ЮЗ 2 19 км н/о +22.2 +14.8 63 +26 +26 душно 1022.7 1010.1
12 23.06 З 2 20 км 3/3 300 м
[Cu med, cong]
+24.8 +16.5 60 +28 +43 жарко 1022.9 1010.4
13 23.06 З 3 20 км н/о +24.6 +16.1 59 +28 +28 душно 1023.0 1010.5
14 23.06 ЮЗ 1 20 км н/о +24.7 +14.5 53 +27 +27 жарко 1022.7 1010.2
15 23.06 ЮЗ 1 20 км 4/0
[Ac lent Ci sp]
+23.7 +14.1 55 +26 +41 жарко 1022.8 1010.3
17 23.06 ЮЗ 1 20 км н/о +22.5 +14.1 59 +26 +26 жарко 1023.0 1010.4
16 23.06 Ю 1 20 км н/о +23.1 +14.1 57 +27 +27 душно 1022.9 1010.3
18 23.06 Ю 1 15 км 5/3 300 м
[Cu Sc Ac trans Ci sp]
+21.6 +14.0 62 +24 +27 комфорт 1022.7 1010.1 +25.3
19 23.06 Ю 1 20 км н/о +21.0 +14.4 66 +25 +25 комфорт 1023.2 1010.5
20 23.06 Ю 1 20 км н/о +20.5 +14.4 68 +25 +25 комфорт 1023.1 1010.4
21 23.06 ЮВ 1 17 км н/о +19.1 +14.6 75 +22 +22 комфорт 1023.5 1010.8
23 23.06 С 1 11 км н/о +17.3 +12.4 73 +18 +18 1024.1 1011.3
22 23.06 СВ 1 20 км н/о +18.3 +12.9 71 +20 +20 1024.0 1011.2
00 24.06 С 1 19 км н/о +16.3 +12.1 76 +18 +18 1023.9 1011.0
01 24.06 С 1 14 км н/о +15.4 +12.0 80 +17 +17 1023.5 1010.6
02 24.06 В 1 16 км н/о +14.6 +11.7 83 +16 +16 1023.4 1010.4
03 24.06 ЮВ 1 11 км н/о +13.9 +11.8 87 +15 +15 1023.3 1010.3
05 24.06 СВ 2 16 км н/о +13.2 +11.6 90 +13 +13 1022.6 1009.6
04 24.06 В 2 17 км н/о +13.9 +11.8 87 +14 +14 1022.5 1009.5
06 24.06 СВ 1 12 км 3/0
[Ac trans]
+13.4 +11.8 90 +13 +14 1022.8 1009.8 +13.0
07 24.06 СВ 1 18 км н/о +14.9 +12.6 86 +16 +16 1022.8 1009.9
08 24.06 З 1 19 км н/о +17.7 +13.4 76 +19 +19 1022.7 1009.9
09 24.06 З 1 20 км 4/0
[Ac trans Ci sp]
+19.7 +14.1 70 +23 +33 комфорт 1022.6 1009.9
11 24.06 СЗ 3 20 км н/о +22.5 +12.1 52 +25 +25 комфорт 1021.8 1009.2
10 24.06 СЗ 4 20 км н/о +20.6 +12.8 61 +23 +23 комфорт 1022.3 1009.6
12 24.06 СЗ 4 20 км 4/1 300 м
[Cu hum Ci sp]
+23.2 +11.3 47 +25 +36 комфорт 1021.6 1009.0
13 24.06 СЗ 4 20 км н/о +24.3 +10.6 42 +25 +25 комфорт 1021.1 1008.6
14 24.06 З 2 20 км н/о +24.9 +14.7 53 +28 +28 жарко 1020.7 1008.2
15 24.06 СЗ 4 20 км 3/3 300 м
[Cu hum]
+24.0 +13.5 52 +26 +34 жарко 1020.0 1007.5
17 24.06 З 2 6000 м н/о +24.1 +14.2 54 +27 +27 жарко 1019.2 1006.7
16 24.06 З 4 20 км н/о +24.0 +14.4 55 +27 +27 жарко 1019.7 1007.2
18 24.06 З 4 20 км 3/1 300 м
[Sc diur, vesp Ci sp]
+24.2 +14.0 53 +27 +29 жарко 1019.1 1006.6 +25.5
19 24.06 СЗ 5 19 км н/о +23.5 +13.4 53 +26 +26 жарко 1019.5 1007.0
20 24.06 СЗ 2 20 км н/о +22.2 +13.3 57 +25 +25 комфорт 1020.0 1007.4
21 24.06 СЗ 3 20 км н/о +19.9 +12.6 63 +22 +22 комфорт 1020.2 1007.5
23 24.06 С 1 20 км н/о +17.5 +12.2 71 +19 +19 1019.8 1007.0
22 24.06 СЗ 1 20 км н/о +18.7 +12.4 67 +21 +21 комфорт 1020.3 1007.6
00 25.06 СВ 2 20 км н/о +16.6 +12.1 75 +17 +17 1019.0 1006.2
01 25.06 ЮВ 1 19 км н/о +15.8 +12.2 79 +17 +17 1018.2 1005.4
02 25.06 СВ 1 19 км н/о +15.1 +12.4 84 +16 +16 1017.3 1004.4
03 25.06 Ю 2 12 км н/о +14.1 +12.0 87 +14 +14 1017.3 1004.4
05 25.06 Ю 2 12 км н/о +13.3 +11.4 88 +13 +13 1016.4 1003.5
04 25.06 С 1 12 км н/о +14.0 +11.9 87 +14 +14 1017.0 1004.1
06 25.06 СЗ 1 15 км 3/1 200 м
[St Ci sp]
+13.0 +11.7 92 +14 +14 1016.9 1004.0 +12.6
07 25.06 В 1 13 км н/о +15.2 +12.7 85 +16 +16 1016.8 1004.0
08 25.06 СЗ 1 16 км н/о +17.3 +12.4 73 +18 +18 1015.8 1003.1
09 25.06 З 2 20 км 4/0
[Ac trans Ci sp]
+20.0 +14.4 70 +23 +32 комфорт 1014.8 1002.2
11 25.06 З 2 15 км н/о +23.9 +14.9 57 +27 +27 жарко 1014.0 1001.6
10 25.06 З 2 15 км н/о +22.1 +14.7 63 +25 +25 комфорт 1014.7 1002.2
12 25.06 З 3 20 км 5/0
[Ac trans Ci sp]
+25.6 +14.1 49 +28 +42 жарко 1013.2 1000.9
13 25.06 З 1 16 км н/о +26.5 +16.1 53 +30 +30 душно 1012.6 1000.3
14 25.06 З 1 15 км н/о +27.0 +16.6 53 +31 +31 душно 1011.9 999.6
15 25.06 ЮЗ 1 15 км 6/0
[Ac cast Ci sp]
+25.8 +16.6 57 +29 +41 душно 1011.6 999.3
17 25.06 ЮЗ 1 14 км н/о +23.5 +15.0 59 +26 +26 жарко 1010.8 998.4
16 25.06 Ю 1 14 км н/о +24.7 +15.3 56 +28 +28 душно 1011.1 998.7
18 25.06 З 1 15 км 10/0
[Ac As]
+22.8 +14.6 60 +26 +28 жарко 1010.7 998.3 +27.3
19 25.06 ЮВ 1 14 км н/о +21.8 +14.4 63 +25 +25 комфорт 1010.9 998.4
20 25.06 штиль 0 14 км н/о +21.0 +14.4 66 +24 +24 комфорт 1010.7 998.2
21 25.06 В 1 13 км н/о +19.7 +13.8 69 +23 +23 комфорт 1011.1 998.5
23 25.06 СВ 2 12 км н/о +19.2 +14.5 74 +21 +21 комфорт 1011.4 998.8
22 25.06 С 1 12 км н/о +19.2 +14.2 73 +22 +22 комфорт 1011.5 998.9
00 26.06 ЮВ 1 11 км н/о +18.6 +14.7 78 +21 +21 комфорт 1011.1 998.5
01 26.06 штиль 0 11 км н/о +17.7 +14.6 82 +18 +18 1011.1 998.4
02 26.06 З 1 10 км н/о +17.0 +14.5 85 +19 +19 1011.4 998.7

 

Местоположение метеостанции Pontevedra (Испания): широта 42.43 долгота -8.62 высота над уровнем моря 108 м.

В архиве по умолчанию представлена погода в Pontevedra за последнюю неделю. Архивные данные за месяц целиком и за предыдущие месяцы, начиная с января 2011 года, Вы можете получить, выбрав интересующий диапазон дат из раскрывающегося списка и нажав кнопку "Ввод!".

Внимание! Время в таблицах - всемирное. Для получения местного времени необходимо прибавить поправку, которая в Pontevedra равна 1 ч.

Смотрите также архив погоды в соседних городах и на ближайших метеорологических станциях:

Погода в Vigo (Испания) (22 км)
Погода в Santiago (Испания) (55 км)
Погода в Orense (Испания) (63 км)
Погода в Viana Do Castelo (Португалия) (90 км)
Погода в La Coruna (Испания) (106 км)
Погода в Lugo (Испания) (123 км)
Погода в Porto (Португалия) (134 км)
Погода в Vila Real (Португалия) (149 км)
Погода в Ponferrada (Испания) (168 км)
Погода в Ovar (Португалия) (168 км)

Пояснения к столбцам:

Ветер - указаны скорость ветра в м/с - средняя за 10 мин, порывы в срок и между сроками (в фигурных скобках) и направление, откуда дует ветер: С - северный, СВ - северо-восточный, В - восточный, ЮВ - юго-восточный, Ю - южный, ЮЗ - юго-западный, З - западный, СЗ - северо-западный.
Видимость - горизонтальная дальность видимости в метрах или километрах. При видимости от 1 до 10 км при отсутствии осадков обычно наблюдается дымка, при ухудшении видимости до 1 км и менее - туман. В сухую погоду видимость может ухудшаться дымом, пылью или мглою.
Явления - указаны атмосферные явления, наблюдавшиеся в срок или в последний час перед сроком; фигурными скобками обозначены явления, наблюдавшиеся между сроками (за 1-3 часа до срока); квадратными скобками обозначены град или гололедные отложения с указанием их диаметра в мм.
Облачность - указаны через наклонную черту общая и нижняя облачность в баллах и высота нижней границы облаков в метрах; квадратными скобками обозначены формы облаков: Ci - перистые, Cs - перисто-слоистые, Cc - перисто-кучевые, Ac - высококучевые, As - высокослоистые, Sc - слоисто-кучевые, Ns - слоисто-дождевые, Cu - кучевые, Cb - кучево-дождевые. Подробнее классификацию облаков см. в Атласе облаков (PDF).
T - Температура воздуха - температура, измеренная на высоте 2 м над землей.
Td - Температура точки росы - температура, при понижении до которой содержащийся в воздухе водяной пар достигнет насыщения.
f - Относительная влажность воздуха - влажноcть воздуха, измеренная на высоте 2 м над землей.
Te - Эффективная температура - температура, которую ощущает одетый по сезону человек в тени. Характеристика душности погоды. При расчете учитывается влияние влажности воздуха и скорости ветра на теплоощущения человека.
Tes - Эффективная температура на солнце - температура, которую ощущает человек, с поправкой на солнечный нагрев. Характеристика знойности погоды. Зависит от высоты солнца над горизонтом, облачности и скорости ветра. Ночью, в пасмурную погоду, а также при ветре 12 м/с и более поправка равна нулю.
P - Атмосферное давление - приведенное к уровню моря атмосферное давление.
Po - Атмосферное давление - измеренное на уровне метеостанции атмосферное давление.
Tmin - Минимальная температура - минимум температуры воздуха на высоте 2 м над землей.
Tmax - Максимальная температура - максимум температуры воздуха на высоте 2 м над землей.
R - Количество осадков - Количество выпавших осадков за период времени, мм. При наведении курсора мыши на число - период времени, за который выпало указанное количество осадков.
R24 - Количество осадков - Количество выпавших осадков за 24 часа, мм.
S - Снежный покров - Высота снежного покрова, см. При наведении курсора мыши на число - состояние снежного покрова и степень покрытия местности в баллах.